Starlink 30827

operational
NORAD ID: 58195 Int'l Des: 2023-167 Owner: SPXS Country: US Constellation: starlink
LEOCIRCULAR

About Starlink 30827

Description loading...

Live Position

Loading 3D Globe...

Upcoming Passes

Altitude History

Altitude vs Time

uPlot chart will show altitude changes over time

Two-Line Element Set

1 58195U 23167W 25258.30631410 .00000484 00000-0 50893-4 0 9992
2 58195 43.0028 18.8607 0001275 274.0938 85.9758 15.02537307104577
Epoch: Sep 15, 2025 • Age: 7 hours

Current Status

Altitude 561.3 km
Velocity 7.59 km/s
Sub-Earth Point 35.18°N, 138.5°W
Launch Date Oct 30, 2023
Age 1.8 years
Type internet

Technical Details

Classification Payload
Mass 730.00 kg
Dry Mass 700.00 kg
Total Mass 730.00 kg
Length 0.30 m
Diameter 4.10 m
Span 29.00 m
Shape Box + pan
Manufacturer SPXS
Bus Type Starlink V2M
Phase Status In Orbit
Owner/State SPXS/US

Large Constellations

Loading constellations...